Showing default

HULIANWANG DIGUI-180, 100205

Orbit data source: Space-Track

HULIANWANG DIGUI-180, 100205 is a payload satellite owned by Zhongguo Xingwang (CN) in LEO that was launched on Tue, 04 Aug 2026 UTC launched from the Wenchang Satellite Launch Center (WSC). Payload-class satellites include a variety of spacecraft equipped with specific instruments for various scientific and technological missions. These include communications satellites like Starlink; space stations such as the ISS; scientific satellites like the Hubble; Earth observation satellites from companies like Planet Labs, Umbra, and HawkEye 360; GPS; miniature CubeSats for education and research; and military/defense satellites.

Loading next visibility...
Identifier
100205, 2026-176C
Orbit
LEO
Country
Flag of CNCN / PRC
Related business
Manufacturer
CAST?
Mission
Operational spacecraft
Bus & Motor
XINGWANG C, Unknown motor
Mass
~700 kg wet, ~700 kg dry
Launch date (UTC)
2026-08-04 (1 month ago)
Launch vehicle
Unknown
Launch site
Wenchang Satellite Launch Center (WSC)
Object type
Payload
Rocket body
Debris
Shape & HBR
BOX + 2 PAN, 14.5 m
Radar Cross Section
Large (>1 m²)

Expand to show TLE details & history
Last TLE update: 13 hours ago

TLE from 13 hours ago
0 HULIANWANG DIGUI-180
1 A0205U 26176C   26254.38091165 -.00000155  00000-0 -66221-4 0  9995
2 A0205  49.9895 256.8070 0000192 353.3651   6.7219 13.29326482  5087
Epoch: 2026-09-11T09:08Z
TLE epoch observation values (Epoch: 2026-09-11T09:08:30.766Z)
Latitude
0.00003°
Longitude
129.27374°
Altitude
1,149.666 km
Speed
7.279 km/s
True Right ascension
17h 07m 13s
True Declination
0° 00' 00"
Sunlit
Object was in daylight at epoch
Visualization orbit readout
Latitude
Unknown
Longitude
Unknown
Altitude
Unknown
Speed
Unknown
Apparent Right ascension
Unknown
Apparent Declination
Unknown
Sunlit
N/A
Visualization observer readout
Local Sidereal Time
14:58:54
Azimuth
Unknown
Elevation
Unknown
Doppler factor
Unknown
Orbital elements
Apogee altitude
1,150.156 km
Perigee altitude
1,149.867 km
Semi-major axis
7,528.149 km
Eccentricity
0.00002
Inclination
49.9895°
RAAN
256.807°
Arg. of periapsis
353.3651°
True anomaly
6.72216°
Mean anomaly
6.7219°
Eccentric anomaly
6.72203°
Mean motion
3.32285 °/min
Orbital period
108.34 mins
BSTAR
-0.000066221
Loading maneuver chart data...
Computing Atmospheric mass density...
Loading historical data...
Loading historical data...
Loading historical data...
Loading historical data...
Loading historical data...
Loading historical data...
Loading historical data...

Documentation

Showing up to 5 results
|